This demonstration page uses our WeatherBlox Daily Observations layout. Learn more.

Left ArrowRight Arrow

39.01783, -85.05884

Hourly Observations for February 28, 2016

Temp ( °F °C ) Dew Point ( °F °C ) Humidity (%) Winds ( mph kmh ) Pressure ( in mb ) Visibility ( mi km ) Precip ( " mm )
12:52 am 00:52 Clear 44 6.7 31 -0.6 60 60 SSW 8 13 30.00 1016 10 16 N/A
1:52 am 01:52 Clear 44 6.7 31 -0.6 60 60 SSW 9 15 29.99 1016 10 16 N/A
2:52 am 02:52 Clear 42 5.6 31 -0.6 65 65 SSW 9 15 29.99 1016 10 16 N/A
3:52 am 03:52 Clear 43 6.1 31 -0.6 63 63 SSW 10 17 29.97 1015 10 16 N/A
4:52 am 04:52 Clear 44 6.7 32 undefined 63 63 SSW 12 19 29.96 1015 10 16 N/A
5:52 am 05:52 Clear 44 6.7 32 undefined 63 63 SSW 12 19 29.96 1015 10 16 N/A
6:52 am 06:52 Clear 44 6.7 32 undefined 63 63 SSW 12 19 29.96 1015 10 16 N/A
7:52 am 07:52 Sunny 46 7.8 33 0.6 61 61 SSW 12 19 29.96 1015 10 16 N/A
8:52 am 08:52 Sunny 49 9.4 33 0.6 55 55 SSW 17 28 29.94 1014 10 16 N/A
9:52 am 09:52 Sunny 53 11.7 34 1.1 48 48 SW 16 26 29.93 1014 10 16 N/A
10:52 am 10:52 Sunny 57 13.9 35 1.7 44 44 SSW 13 20 29.91 1013 10 16 N/A
11:52 am 11:52 Sunny 61 16.1 36 2.2 39 39 SW 22 35 29.89 1012 10 16 N/A
12:52 pm 12:52 Mostly Sunny 64 17.8 36 2.2 35 35 SSW 20 31 29.86 1011 10 16 N/A
1:52 pm 13:52 Mostly Sunny 64 17.8 34 1.1 33 33 SW 21 33 29.80 1009 10 16 N/A
2:52 pm 14:52 Sunny 65 18.3 35 1.7 33 33 SSW 23 37 29.76 1008 10 16 N/A
3:52 pm 15:52 Sunny 65 18.3 34 1.1 32 32 SSW 25 41 29.73 1007 10 16 N/A
4:52 pm 16:52 Mostly Sunny 64 17.8 33 0.6 32 32 SSW 18 30 29.72 1006 10 16 N/A
5:52 pm 17:52 Partly Cloudy 63 17.2 34 1.1 34 34 SSW 13 20 29.71 1006 10 16 N/A
6:52 pm 18:52 Partly Cloudy 61 16.1 33 0.6 35 35 SSW 16 26 29.69 1005 10 16 N/A
7:52 pm 19:52 Partly Cloudy 60 15.6 32 undefined 35 35 SSW 17 28 29.70 1006 10 16 N/A
8:52 pm 20:52 Cloudy 60 15.6 31 -0.6 33 33 SSW 23 37 29.69 1005 10 16 N/A
9:52 pm 21:52 Cloudy 60 15.6 32 undefined 35 35 SSW 20 31 29.67 1005 10 16 N/A
10:52 pm 22:52 Cloudy with Light Rain 59 15 35 1.7 41 41 SW 21 33 29.66 1005 10 16 N/A
11:52 pm 23:52 Cloudy 60 15.6 38 3.3 44 44 SW 18 30 29.63 1003 10 16 N/A

Powered by AerisWeather